Location: Palomar Mountain Lodge
(33.3110°N, 116.8495°W)
Time: 19:13:33
(UTC-08:00)

Terra - Pass Details

Date: 12 July 2018
Orbit: 702 x 703 km, 98.2° (Epoch: 18 November)

Event Time Altitude Azimuth Distance (km) Brightness Sun altitude
Exits shadow 22:12:37 30° 69° (ENE) 1,255 2.9 -22.9°
Drops below altitude 10° 22:16:38 10° 11° (N) 2,169 4.8 -23.4°
Sets 22:19:07 0° 1° (N) 3,091 5.9 -23.8°
